Simultaneous Nadir Overpasses (SNOs) Predictions

Prediction of SNOs between AQUA and METOP-B Satellite Orbit:

Table of predicted SNOs for the next 14.0 days since TLE Epoch: 4/12/2025
Index Date (AQUA) Time (AQUA) Lat,Lon (AQUA) SZA (AQUA ) Date (METOP-B) Time (METOP-B) Lat,Lon (METOP-B) SZA (METOP-B ) Distance(km) Time Diff (sec)
1 04/14/2025 12:40:56 77.24, -11.33 67.56 04/14/2025 12:40:35 77.22, -11.32 67.54 1.48 21
2 04/14/2025 13:30:14 -77.25, 156.28 112.45 04/14/2025 13:31:15 -77.28, 156.24 112.42 3.09 61
3 04/17/2025 00:40:08 -76.97, -10.06 113.61 04/17/2025 00:39:00 -76.88, -12.31 113.68 57.39 68
4 04/17/2025 01:29:33 77.25, 156.54 66.66 04/17/2025 01:29:32 77.25, 156.51 66.67 0.85 1
5 04/17/2025 02:18:58 -77.58, -37.16 113.01 04/17/2025 02:20:05 -77.61, -34.60 112.99 61.47 67
6 04/19/2025 13:28:50 -77.25, 156.76 114.21 04/19/2025 13:27:50 -77.25, 156.91 114.20 3.60 60
7 04/19/2025 14:18:09 77.25, -35.57 65.79 04/19/2025 14:18:30 77.26, -35.72 65.80 3.66 21
8 04/22/2025 02:17:24 -77.25, -35.32 115.07 04/22/2025 02:16:48 -77.26, -35.35 115.06 0.77 36
9 04/22/2025 03:06:44 77.30, 132.15 64.98 04/22/2025 03:07:27 77.30, 132.19 64.98 1.07 43
10 04/24/2025 15:05:57 -77.30, 132.43 115.86 04/24/2025 15:05:45 -77.29, 132.53 115.87 2.44 12



Historial Predications of SNOs between AQUA and METOP-B
